Printer-friendly version

IAU Minor Planet Center

Minor Planet Center

MPEC 2008-T113: 2008 TL26

The following Minor Planet Electronic Circular may be linked-to from your own Web pages, but must not otherwise be redistributed electronically.


Read MPEC 2008-T112 Read MPEC 2008-T114


M.P.E.C. 2008-T113                               Issued 2008 Oct. 10, 18:57 UT

     The Minor Planet Electronic Circulars contain information on unusual
         minor planets and routine data on comets.  They are published
   on behalf of Commission 20 of the International Astronomical Union by the
          Minor Planet Center, Smithsonian Astrophysical Observatory,
                          Cambridge, MA 02138, U.S.A.

             Prepared using the Tamkin Foundation Computer Network

                              MPC@CFA.HARVARD.EDU
          URL http://www.cfa.harvard.edu/iau/mpc.html  ISSN 1523-6714

                                   2008 TL26

Observations:
     K08T26L* C2008 10 09.24381 00 17 35.16 +11 54 46.8          21.1 V ET113G96
     K08T26L  C2008 10 09.24858 00 17 37.64 +11 54 07.5          20.9 V ET113G96
     K08T26L  C2008 10 09.25328 00 17 40.02 +11 53 29.7          20.5 V ET113G96
     K08T26L  C2008 10 09.25804 00 17 42.43 +11 52 49.6          21.4 V ET113G96
     K08T26L  C2008 10 09.28309 00 17 55.21 +11 49 25.7          21.2 V ET113G96
     K08T26L  C2008 10 09.28362 00 17 55.50 +11 49 21.3          20.9 V ET113G96
     K08T26L  C2008 10 09.28418 00 17 55.78 +11 49 16.9          21.5 V ET113G96
     K08T26L  C2008 10 09.28471 00 17 56.04 +11 49 12.6          20.6 V ET113G96
     K08T26L  C2008 10 09.34237 00 18 25.28 +11 41 19.0          20.5 R ET113H01
     K08T26L  C2008 10 09.34308 00 18 25.66 +11 41 13.4          20.4 R ET113H01
     K08T26L  C2008 10 09.34569 00 18 26.99 +11 40 52.1          20.5 R ET113H01
     K08T26L  C2008 10 09.34639 00 18 27.35 +11 40 46.2          20.4 R ET113H01
     K08T26L  C2008 10 09.34891 00 18 28.64 +11 40 25.6          20.5 R ET113H01
     K08T26L  C2008 10 09.37686 00 18 43.20 +11 36 38.2          20.9 V ET113G96
     K08T26L  C2008 10 09.37752 00 18 43.56 +11 36 32.4          21.2 V ET113G96
     K08T26L  C2008 10 09.37817 00 18 43.84 +11 36 28.0          20.0 V ET113G96
     K08T26L  C2008 10 09.37882 00 18 44.17 +11 36 22.2          21.2 V ET113G96
     K08T26L  C2008 10 10.24694 00 26 28.82 +09 38 07.3          20.9 V ET113G96
     K08T26L  C2008 10 10.24741 00 26 29.04 +09 38 04.3          21.0 V ET113G96
     K08T26L  C2008 10 10.24787 00 26 29.25 +09 38 00.4          21.9 V ET113G96
     K08T26L  C2008 10 10.24833 00 26 29.50 +09 37 56.5          20.9 V ET113G96
     K08T26L  C2008 10 10.38768 00 27 39.57 +09 18 54.3          21.6 V ET113G96
     K08T26L  C2008 10 10.39117 00 27 41.43 +09 18 26.4          22.2 V ET113G96
     K08T26L  C2008 10 10.39459 00 27 43.10 +09 17 57.3          21.0 V ET113G96
     K08T26L  C2008 10 10.39816 00 27 45.01 +09 17 28.3          21.9 V ET113G96

Observer details:
G96 Mt. Lemmon Survey.  Observer A. Boattini.  Measurers E. C. Beshore,
    A. Boattini, G. J. Garradd, A. R. Gibbs, A. D. Grauer, R. E. Hill,
    R. A. Kowalski, S. M. Larson, R. H. McNaught.  1.5-m reflector + CCD.
H01 Magdalena Ridge Observatory, Socorro.  Observer W. H. Ryan.  2.4-m f/8.9
    reflector + CCD.

Orbital elements:
2008 TL26                                                Earth MOID = 0.1211 AU
Epoch 2008 Nov. 30.0 TT = JDT 2454800.5                 MPC
M  13.10530              (2000.0)            P               Q
n   0.23108718     Peri.  171.54625     +0.98239754     -0.15945391
a   2.6299782      Node   198.50749     +0.14839798     +0.98257575
e   0.5750917      Incl.   17.85215     +0.11345977     +0.09549528
P   4.27           H   24.7           G   0.15           U   8
Residuals in seconds of arc
081009 G96  0.1-  0.8+    081009 H01  0.0   0.1+    081010 G96  0.2-  0.2+
081009 G96  0.5+  0.3+    081009 H01  0.1-  0.2+    081010 G96  0.5-  0.0
081009 G96  0.2+  0.8+    081009 H01  0.1-  0.0     081010 G96  0.2-  0.1-
081009 G96  0.0   0.5-    081009 H01  0.2-  0.1+    081010 G96  0.7-  0.0
081009 G96  0.0   0.2-    081009 G96  0.1+  0.3-    081010 G96  0.7+  0.8+
081009 G96  0.3+  0.3-    081009 G96  0.4+  0.7-    081010 G96  0.3-  0.2-
081009 G96  0.2+  0.1-    081009 G96  0.4-  0.3+    081010 G96  1.1+  0.1+
081009 G96  0.1+  0.1-    081009 G96  0.5-  0.2-
081009 H01  0.2-  0.1-    081010 G96  0.1+  0.7-

Ephemeris:
2008 TL26                a,e,i = 2.63, 0.58, 18                  q = 1.1175
Date    TT    R. A. (2000) Decl.     Delta      r     Elong.  Phase     V
2008 10 11    00 33.04   +07 56.2    0.123    1.121   171.7     7.3    20.9
2008 10 12    00 41.60   +05 41.0    0.124    1.122   172.8     6.4    20.9
2008 10 13    00 49.96   +03 28.1    0.126    1.123   172.7     6.5    20.9
2008 10 14    00 58.09   +01 18.5    0.128    1.124   171.7     7.4    21.0
2008 10 15    01 05.96   -00 46.8    0.130    1.125   170.0     8.9    21.1
2008 10 16    01 13.56   -02 47.2    0.133    1.127   168.0    10.6    21.2
2008 10 17    01 20.88   -04 42.0    0.135    1.128   165.9    12.4    21.4
2008 10 18    01 27.91   -06 30.9    0.139    1.130   163.8    14.2    21.5
2008 10 19    01 34.64   -08 13.5    0.142    1.132   161.8    16.0    21.6
2008 10 20    01 41.09   -09 49.8    0.146    1.134   159.8    17.6    21.7
2008 10 21    01 47.24   -11 19.8    0.150    1.136   157.9    19.2    21.8
2008 10 22    01 53.10   -12 43.5    0.155    1.139   156.2    20.7    22.0
2008 10 23    01 58.69   -14 01.1    0.160    1.141   154.5    22.1    22.1
2008 10 24    02 03.99   -15 12.9    0.164    1.143   152.9    23.3    22.2
2008 10 25    02 09.04   -16 19.1    0.169    1.146   151.5    24.5    22.3
2008 10 26    02 13.82   -17 20.0    0.175    1.149   150.1    25.6    22.4
2008 10 27    02 18.36   -18 15.8    0.180    1.152   148.8    26.5    22.5
2008 10 28    02 22.67   -19 06.9    0.186    1.155   147.6    27.4    22.6
2008 10 29    02 26.75   -19 53.6    0.192    1.158   146.5    28.3    22.7
2008 10 30    02 30.62   -20 36.2    0.198    1.161   145.5    29.0    22.8
2008 10 31    02 34.29   -21 14.8    0.204    1.165   144.5    29.7    22.9

Timothy B. Spahr             (C) Copyright 2008 MPC           M.P.E.C. 2008-T113

Read MPEC 2008-T112 Read MPEC 2008-T114


Our Web policy. Index to the CBAT/MPC/ICQ pages.


Valid HTML 4.01!